Tracking 27371 objects as of 7-Jun-2023
HD Live streaming from Space Station
objects crossing your sky now

COSMOS 2499 DEB

Track COSMOS 2499 DEB now!
10-day predictions


NORAD ID: 55734
Int'l Code: 2014-028AW
Perigee: 1,068.2 km
Apogee: 1,320.6 km
Inclination: 82.3 °
Period: 109.1 minutes
Semi major axis: 7565 km
RCS: Unknown
Launch date: May 23, 2014
Source: Commonwealth of Independent States (former USSR) (CIS)
Launch site: PLESETSK MISSILE AND SPACE COMPLEX (PKMTR)

Note: This is SATELLITE DEBRIS
Your satellite tracking list
Your tracking list is empty




NASA's NSSDC Master Catalog

Two Line Element Set (TLE):
1 55734U 14028AW  23138.68818906  .00006459  00000-0  15054-1 0  9992
2 55734  82.3290 284.4254 0166849  50.4260 311.1465 13.19338884 15296
Source of the keplerian elements: AFSPC